This is the latest recevied weather packets stored in our database for station/object DB0FN-10. If no packets are shown the sender has not sent any weather packets the latest 10 day(s).
| Time | Temp. | Humidity | Pressure | Rain* | Wind** | Luminosity | Snow |
|---|---|---|---|---|---|---|---|
| 1787684521 | 24.44° C | 62% | 1020.2 hPa | - | - | - | - |
| 1787683621 | 24.44° C | 60% | 1020 hPa | - | - | - | - |
| 1787682721 | 24.44° C | 61% | 1019.8 hPa | - | - | - | - |
| 1787681821 | 25° C | 60% | 1019.8 hPa | - | - | - | - |
| 1787680921 | 25° C | 61% | 1019.6 hPa | - | - | - | - |
| 1787680021 | 24.44° C | 64% | 1019.5 hPa | - | - | - | - |
| 1787679121 | 25° C | 63% | 1019.5 hPa | - | - | - | - |
| 1787678220 | 25° C | 60% | 1019.3 hPa | - | - | - | - |
| 1787677320 | 25° C | 60% | 1019.2 hPa | - | - | - | - |
| 1787676420 | 25° C | 59% | 1019.2 hPa | - | - | - | - |
| 1787675520 | 25° C | 61% | 1019.2 hPa | - | - | - | - |
| 1787674620 | 24.44° C | 62% | 1019 hPa | - | - | - | - |
| 1787673720 | 24.44° C | 63% | 1018.9 hPa | - | - | - | - |
| 1787672820 | 24.44° C | 63% | 1018.8 hPa | - | - | - | - |
| 1787671920 | 23.89° C | 63% | 1019 hPa | - | - | - | - |
| 1787671020 | 23.89° C | 64% | 1019 hPa | - | - | - | - |
| 1787670120 | 24.44° C | 61% | 1019.1 hPa | - | - | - | - |
| 1787669220 | 24.44° C | 66% | 1019.1 hPa | - | - | - | - |
| 1787668320 | 25° C | 64% | 1019.1 hPa | - | - | - | - |
| 1787667420 | 25° C | 66% | 1019.1 hPa | - | - | - | - |
| 1787666519 | 24.44° C | 63% | 1019.1 hPa | - | - | - | - |
| 1787665619 | 23.89° C | 66% | 1019.1 hPa | - | - | - | - |
| 1787664719 | 23.89° C | 66% | 1018.9 hPa | - | - | - | - |
| 1787663819 | 23.89° C | 71% | 1019 hPa | - | - | - | - |
| 1787662919 | 23.89° C | 67% | 1018.9 hPa | - | - | - | - |
* Rain since midnight (hover to see other rain measurements)
** Current wind speed in m/s (hover to see current wind gust speed)